Temperature
-1 -1 -0 -0 -0 0 0 0 0 0 0 0 0 0 1 1 1 1 1 1 1 1 1 1 1 2 2 2 2 2 2 2 2 3 3 4 4 4 4 4 5 5 5
-2 -1 -1 -1 -1 -1 -0 -0 -0 -0 -0 -0 -0 -0 -0 0 0 0 0 0 0 0 1 1 1 1 1 1 1 2 2 2 2 2 3 3 3 3 4 4 4 4 4
-2 -2 -2 -2 -1 -1 -1 -1 -1 -1 -1 -1 -1 -1 -1 -0 -0 -0 -0 -0 -0 0 0 0 0 1 1 1 1 1 2 2 1 2 2 3 3 3 3 3 3 4 4
-3 -3 -2 -2 -2 -2 -2 -2 -2 -2 -2 -2 -1 -1 -1 -1 -1 -1 -1 -1 -1 -1 -0 -0 -0 0 1 1 1 1 1 1 1 1 2 2 2 2 2 2 3 3 3
-4 -3 -3 -3 -3 -3 -3 -3 -3 -2 -2 -2 -2 -2 -2 -1 -1 -1 -1 -1 -1 -1 -1 -1 -1 -0 -0 0 0 0 1 1 1 1 1 1 2 2 2 2 2 3 3
-4 -4 -4 -4 -4 -4 -3 -3 -3 -3 -3 -3 -3 -3 -2 -2 -2 -2 -2 -2 -2 -2 -2 -2 -2 -1 -1 -0 -0 -0 -0 -0 0 0 0 1 1 1 1 1 1 2 2
-5 -5 -5 -5 -4 -4 -4 -4 -4 -4 -4 -4 -3 -3 -3 -3 -3 -3 -3 -3 -3 -2 -2 -2 -2 -2 -2 -1 -1 -1 -1 -1 -0 -0 -0 -0 0 0 0 1 1 1 1
-6 -6 -6 -5 -5 -5 -5 -5 -4 -4 -4 -4 -4 -4 -4 -3 -3 -3 -3 -3 -3 -3 -3 -3 -3 -3 -2 -2 -2 -2 -1 -1 -1 -1 -1 -1 -0 -0 0 0 0 0 1
-6 -6 -6 -6 -6 -6 -6 -5 -5 -5 -5 -5 -5 -5 -4 -4 -4 -4 -4 -4 -4 -4 -4 -4 -4 -3 -3 -3 -3 -2 -2 -2 -2 -2 -2 -1 -1 -1 -1 -1 -1 -0 -0
-7 -7 -7 -7 -7 -7 -6 -6 -6 -6 -6 -6 -5 -5 -5 -5 -5 -5 -5 -5 -5 -5 -5 -4 -4 -4 -4 -4 -3 -3 -3 -2 -2 -2 -2 -2 -2 -1 -1 -1 -1 -1 -1
-7 -7 -7 -7 -7 -7 -7 -7 -7 -7 -7 -6 -6 -6 -6 -6 -6 -6 -5 -5 -5 -5 -5 -5 -5 -5 -4 -4 -4 -4 -3 -3 -3 -3 -3 -2 -2 -2 -2 -1 -1 -1 -1
-8 -8 -8 -8 -8 -8 -8 -7 -7 -7 -7 -7 -7 -7 -7 -7 -7 -6 -6 -6 -6 -6 -6 -5 -5 -5 -5 -5 -4 -4 -4 -4 -3 -4 -3 -3 -3 -2 -2 -2 -2 -2 -2
-8 -8 -8 -8 -8 -8 -8 -8 -8 -8 -8 -8 -8 -8 -7 -7 -7 -7 -7 -6 -6 -6 -6 -6 -6 -6 -5 -5 -5 -5 -5 -4 -4 -4 -4 -4 -3 -3 -3 -3 -2 -2 -2
-9 -9 -9 -9 -9 -9 -9 -9 -9 -9 -9 -9 -8 -8 -8 -8 -8 -7 -7 -7 -6 -6 -6 -6 -6 -6 -6 -6 -6 -6 -5 -5 -5 -5 -5 -4 -4 -4 -3 -3 -3 -3 -3
-9 -9 -9 -9 -9 -9 -9 -9 -9 -9 -9 -9 -9 -9 -9 -8 -8 -8 -8 -7 -7 -7 -7 -7 -7 -7 -6 -6 -6 -6 -6 -6 -6 -5 -5 -5 -5 -4 -4 -4 -3 -4 -4
-10 -10 -10 -10 -10 -10 -10 -9 -9 -9 -9 -9 -9 -9 -9 -9 -9 -8 -8 -8 -8 -7 -7 -7 -7 -7 -7 -7 -7 -7 -7 -6 -6 -6 -6 -6 -5 -5 -5 -5 -4 -4 -4
-10 -10 -10 -10 -10 -10 -10 -10 -10 -9 -9 -9 -9 -9 -9 -9 -9 -9 -8 -8 -8 -8 -8 -8 -8 -8 -8 -8 -8 -7 -7 -7 -7 -7 -7 -6 -6 -6 -6 -6 -5 -5 -5
-10 -10 -11 -11 -11 -11 -11 -11 -11 -10 -10 -10 -9 -10 -10 -9 -9 -9 -9 -9 -9 -9 -9 -9 -9 -9 -9 -8 -8 -8 -8 -8 -7 -7 -7 -7 -7 -7 -6 -6 -6 -6 -6
-11 -11 -11 -11 -11 -11 -11 -11 -11 -11 -11 -10 -10 -10 -10 -10 -10 -10 -10 -10 -10 -10 -10 -9 -9 -9 -9 -9 -9 -9 -8 -8 -8 -8 -8 -8 -7 -7 -7 -7 -7 -7 -7
-11 -11 -11 -11 -11 -11 -11 -11 -11 -11 -11 -11 -11 -10 -10 -10 -10 -10 -10 -10 -10 -10 -10 -10 -10 -10 -10 -9 -9 -9 -9 -9 -8 -8 -8 -8 -8 -8 -8 -8 -8 -8 -7
-11 -11 -11 -12 -12 -12 -12 -12 -11 -11 -11 -11 -11 -11 -11 -10 -10 -10 -10 -10 -11 -11 -10 -10 -10 -10 -10 -10 -10 -10 -9 -9 -9 -9 -8 -8 -8 -8 -8 -8 -8 -8 -8
-11 -12 -12 -12 -12 -12 -12 -12 -12 -11 -11 -11 -11 -11 -11 -11 -11 -11 -11 -11 -11 -11 -11 -11 -11 -10 -10 -10 -10 -10 -10 -10 -9 -9 -9 -9 -9 -9 -9 -9 -9 -9 -8
-12 -12 -12 -12 -12 -12 -12 -12 -12 -12 -12 -11 -11 -11 -11 -11 -11 -11 -11 -11 -11 -11 -11 -11 -11 -11 -11 -11 -11 -10 -10 -10 -10 -9 -9 -9 -9 -9 -9 -9 -9 -9 -9
-12 -12 -12 -12 -12 -12 -12 -12 -12 -12 -12 -12 -12 -12 -12 -12 -12 -12 -12 -12 -12 -11 -11 -11 -11 -11 -11 -11 -11 -11 -11 -10 -10 -10 -10 -10 -10 -10 -9 -9 -9 -9 -10
-12 -12 -12 -12 -13 -13 -13 -13 -12 -12 -12 -12 -12 -12 -12 -12 -12 -12 -12 -12 -12 -12 -12 -12 -12 -12 -11 -11 -11 -11 -11 -11 -11 -10 -10 -10 -10 -10 -10 -10 -10 -10 -10
-12 -12 -12 -12 -12 -13 -13 -13 -13 -13 -13 -13 -13 -13 -13 -13 -13 -12 -12 -12 -12 -12 -12 -12 -12 -12 -12 -12 -12 -11 -11 -11 -11 -11 -10 -10 -10 -10 -10 -10 -10 -10 -10
Wind_Speed
4 4 4 4 4 4 4 5 5 5 6 5 6 6 6 7 7 7 7 7 8 8 7 8 8 7 6 6 5 6 6 5 8 7 4 4 5 5 6 8 10 10 12
5 4 4 5 4 5 5 6 6 6 6 6 6 6 7 7 6 7 7 7 8 8 9 9 9 8 8 7 6 7 7 6 7 9 6 4 5 6 5 6 7 9 10
5 5 5 5 5 5 6 6 6 6 6 6 6 6 7 7 6 7 7 7 8 8 8 9 9 9 9 7 8 8 7 7 6 8 7 5 5 5 5 5 6 6 8
6 6 6 6 6 6 6 7 6 6 5 6 6 6 7 7 7 7 8 8 8 8 8 8 8 9 10 9 9 8 7 7 7 7 7 5 5 5 4 5 5 5 5
6 7 7 7 7 6 7 7 6 6 6 6 6 6 7 7 7 8 8 8 8 8 8 8 8 10 11 10 9 7 7 7 7 7 7 6 6 4 5 4 6 5 5
7 7 7 7 7 7 7 6 5 5 5 5 6 6 7 7 10 11 9 7 7 8 8 8 8 9 11 14 14 12 10 9 8 8 7 8 8 6 5 5 5 5 6
7 7 7 7 7 8 7 5 5 5 5 5 6 6 7 8 11 12 12 8 8 8 8 8 8 9 10 9 11 13 12 13 12 9 10 10 9 8 7 7 7 7 7
7 8 8 7 7 7 6 6 6 5 6 5 6 7 7 8 11 11 11 9 8 8 8 8 9 8 9 9 9 9 9 9 10 10 10 9 9 8 8 9 8 7 6
7 8 8 7 8 7 7 6 6 6 6 5 6 6 6 7 10 11 11 6 7 8 9 9 9 9 12 12 9 9 8 8 9 11 12 11 11 11 9 6 6 6 6
8 8 8 8 7 7 7 7 6 6 6 6 6 5 5 6 9 10 10 6 7 7 7 8 11 11 12 11 9 8 9 8 6 7 8 9 9 9 10 8 7 7 5
8 8 8 8 7 7 7 6 5 6 6 6 7 6 5 6 8 9 9 5 6 6 7 7 7 11 12 12 11 8 9 8 6 6 6 6 6 6 6 7 7 7 6
7 8 8 8 7 7 6 6 6 6 6 6 6 6 5 5 7 8 9 8 7 6 6 6 6 9 10 11 9 9 9 8 5 5 5 5 5 5 5 5 6 6 6
7 8 8 8 7 7 6 7 6 5 5 6 6 5 5 4 5 9 9 9 9 6 5 7 8 8 8 7 8 8 7 5 4 5 5 5 5 4 4 4 3 2 2
7 7 7 7 7 7 6 6 5 5 5 6 6 5 5 5 5 5 5 6 7 6 5 7 8 7 6 6 5 5 4 4 4 5 4 4 3 3 3 3 3 3 2
7 7 7 7 7 6 6 5 6 5 5 6 5 4 5 5 6 8 6 4 3 4 4 4 3 3 3 3 3 3 3 3 4 3 3 3 3 3 2 2 2 2 3
7 7 6 6 6 6 6 7 8 8 10 10 9 8 7 8 10 9 9 8 7 6 4 3 3 3 3 3 3 3 3 3 3 3 3 3 3 2 2 1 1 2 2
6 7 6 6 6 6 6 6 7 8 10 10 11 11 10 10 9 9 8 7 6 6 3 3 3 3 3 3 3 3 3 3 2 2 2 2 2 2 1 1 1 1 2
7 8 7 5 6 6 6 6 6 7 7 6 8 10 10 9 9 9 8 5 4 3 2 2 3 3 3 3 3 3 2 2 2 2 2 2 2 1 1 1 1 1 1
7 6 5 5 5 6 6 6 5 6 6 6 6 7 9 8 8 8 6 2 2 3 3 2 2 2 2 2 2 3 2 2 2 2 2 2 2 1 1 1 1 2 2
6 9 7 6 5 5 5 5 5 5 5 5 5 5 5 5 4 4 3 2 2 2 2 2 2 2 2 2 2 2 3 2 2 2 2 2 2 1 1 2 2 2 1
5 7 8 6 5 5 5 5 5 5 5 5 5 6 7 4 3 3 3 3 2 3 3 3 2 2 2 2 2 2 3 2 2 2 2 2 2 1 1 1 2 1 1
5 5 5 5 5 5 5 5 5 5 5 5 4 5 8 4 3 3 3 3 3 3 3 3 2 2 2 2 2 3 3 2 2 2 1 1 1 1 1 1 1 1 1
5 6 5 5 5 7 6 5 5 4 4 4 4 4 4 4 4 4 4 3 3 3 3 3 3 3 3 3 3 3 2 2 2 2 1 1 1 1 1 1 1 1 1
5 5 5 5 5 4 5 5 5 5 5 4 4 4 4 4 4 4 4 3 3 3 4 4 4 4 5 5 4 4 4 4 3 2 2 2 2 1 1 1 2 2 2
4 5 5 4 4 4 5 5 5 4 4 4 4 4 4 4 4 4 3 3 4 3 4 5 4 5 5 6 5 5 5 6 6 4 3 2 2 3 3 2 2 2 2
5 5 4 4 4 4 4 4 4 4 4 4 4 4 4 4 3 3 3 3 3 4 4 5 5 6 6 6 6 7 7 7 6 5 4 2 2 3 3 3 3 2 2
Wind_Direction
311 306 301 296 293 286 277 270 267 264 260 257 258 253 244 244 243 238 235 236 236 241 243 244 246 245 245 244 245 241 239 241 255 264 257 257 248 252 259 248 247 244 245
317 306 302 298 294 289 285 282 277 270 263 257 257 256 249 244 243 243 240 241 239 241 241 243 247 246 243 244 242 244 239 237 247 261 265 257 252 247 252 256 256 249 246
325 315 309 303 298 293 289 288 282 274 270 263 255 253 249 246 244 244 244 244 244 244 243 242 246 245 244 245 242 245 244 243 244 252 261 257 255 250 252 264 261 255 251
327 318 309 305 300 297 293 290 283 276 269 264 261 255 249 246 244 243 245 245 245 247 244 243 247 244 242 242 243 241 244 241 242 247 255 256 255 248 242 253 267 258 258
324 317 310 309 305 301 297 291 283 276 271 266 264 263 256 249 246 242 243 244 245 249 248 247 249 250 246 244 247 241 242 243 239 243 250 257 259 244 244 249 265 272 262
321 314 313 314 313 309 303 296 288 282 276 273 268 267 264 258 258 256 252 246 246 247 251 252 253 256 259 257 253 250 243 242 241 242 248 248 251 249 253 252 258 267 262
317 313 312 312 312 309 306 302 295 289 286 280 273 268 267 269 271 265 259 253 250 252 254 256 260 261 261 257 255 254 251 252 248 245 246 245 247 243 244 248 249 260 263
315 314 314 315 314 315 322 317 304 294 287 280 275 268 267 273 277 273 267 255 253 253 252 252 253 256 259 258 253 248 245 248 251 250 250 249 250 245 236 241 252 263 273
314 315 316 316 314 314 316 312 309 306 300 291 286 278 276 279 279 276 273 253 251 254 256 255 253 252 262 264 257 251 249 250 257 259 258 256 254 252 248 240 244 247 262
314 314 314 313 310 308 308 308 308 305 300 298 294 288 285 285 285 277 270 254 255 257 258 256 257 259 265 263 252 250 250 250 253 263 264 259 255 251 246 233 231 237 250
315 315 314 313 310 307 306 307 308 305 305 301 295 292 289 289 295 290 280 259 257 262 263 261 256 263 265 261 259 252 257 260 251 252 256 251 247 243 239 238 233 231 235
316 314 314 314 312 312 313 312 310 308 304 298 294 291 288 292 300 293 286 276 274 261 262 266 264 266 266 266 264 264 267 266 258 257 259 254 247 245 239 239 240 240 240
314 312 312 314 313 312 311 310 308 305 300 297 297 296 299 299 302 301 290 283 278 268 265 271 277 275 269 265 272 277 272 260 253 257 261 264 255 243 238 239 226 225 264
311 311 311 312 312 313 309 307 305 304 302 300 297 294 296 299 301 300 289 282 278 275 278 276 275 275 274 275 282 278 266 260 251 253 259 264 268 246 235 222 206 197 219
310 310 311 310 308 309 308 304 303 295 300 299 296 292 296 296 298 304 300 286 278 271 277 274 276 271 267 262 261 267 269 263 262 258 261 271 272 269 260 227 217 211 225
311 312 309 309 307 306 305 305 305 302 306 305 304 299 295 296 300 301 302 295 294 290 283 280 281 278 273 276 276 273 274 275 268 264 263 265 267 268 279 288 238 217 217
303 303 303 303 303 304 306 306 309 308 305 304 304 304 301 301 303 304 304 306 303 299 285 277 280 284 288 292 286 277 275 285 282 271 274 275 271 267 276 287 276 257 231
301 299 301 298 299 299 300 301 304 308 311 310 309 309 311 312 314 317 315 318 319 317 297 291 291 295 296 298 300 289 281 285 286 283 279 277 272 270 272 272 268 266 258
300 297 297 296 294 293 295 297 299 299 302 307 315 317 319 318 320 325 327 316 303 308 307 302 299 295 296 301 305 306 297 281 279 275 278 281 273 269 267 266 272 284 277
302 303 305 300 297 297 297 296 296 298 301 305 309 315 320 321 323 328 328 318 302 298 301 300 299 302 302 302 301 300 301 296 286 277 280 281 276 262 253 252 250 251 262
303 305 307 303 298 297 299 298 297 298 300 301 301 312 324 320 321 323 323 319 307 303 304 301 297 299 298 300 300 294 288 291 297 288 282 280 270 263 258 253 250 245 237
303 301 302 299 300 301 303 301 299 299 301 303 307 315 323 325 323 321 321 318 317 311 305 305 303 294 292 293 292 291 288 287 294 299 281 267 264 260 250 241 232 229 210
306 304 305 305 303 306 308 306 305 305 304 304 309 316 320 320 316 316 317 319 317 311 308 306 304 304 301 297 294 286 283 287 288 283 273 251 248 241 217 204 207 216 229
310 309 307 307 305 304 306 308 308 310 311 312 313 313 312 311 310 312 317 319 312 308 308 308 305 304 302 301 301 300 298 299 294 275 263 238 231 229 213 204 218 227 222
315 313 311 308 309 308 307 307 307 311 314 316 316 317 316 316 315 315 318 315 314 312 310 309 306 306 307 307 303 301 303 303 299 289 263 238 219 211 204 207 217 217 216
322 319 316 314 311 311 312 313 314 316 316 316 316 314 312 309 309 310 311 313 315 312 310 310 311 311 310 308 306 307 307 304 300 294 276 242 222 208 196 201 202 202 192
Height
1474 1472 1471 1470 1470 1469 1469 1468 1468 1468 1467 1466 1467 1467 1468 1469 1470 1470 1471 1472 1473 1473 1474 1475 1476 1478 1479 1480 1481 1482 1483 1484 1482 1480 1483 1484 1485 1486 1487 1487 1488 1488 1489
1471 1469 1467 1466 1465 1464 1464 1463 1463 1462 1462 1461 1461 1462 1462 1463 1463 1464 1465 1466 1466 1467 1467 1468 1469 1471 1472 1473 1474 1475 1476 1477 1478 1476 1476 1478 1478 1480 1480 1481 1481 1482 1482
1468 1465 1463 1462 1460 1459 1458 1457 1456 1456 1455 1455 1455 1456 1456 1457 1457 1457 1458 1459 1459 1460 1461 1461 1462 1464 1464 1466 1467 1468 1469 1470 1472 1471 1469 1471 1472 1473 1474 1474 1474 1475 1475
1464 1462 1460 1458 1456 1454 1453 1451 1451 1450 1449 1449 1449 1449 1450 1450 1450 1451 1451 1452 1452 1453 1454 1454 1455 1456 1457 1458 1460 1460 1462 1463 1464 1464 1464 1464 1465 1466 1467 1467 1467 1467 1467
1461 1458 1455 1454 1452 1449 1447 1445 1444 1443 1443 1443 1443 1443 1443 1443 1443 1444 1445 1445 1445 1446 1447 1447 1448 1449 1450 1451 1452 1453 1454 1455 1456 1457 1457 1457 1457 1459 1460 1460 1460 1460 1460
1457 1454 1452 1449 1447 1444 1441 1439 1438 1437 1437 1437 1436 1437 1436 1437 1437 1438 1439 1439 1439 1439 1439 1440 1441 1442 1443 1444 1445 1446 1447 1448 1448 1449 1449 1450 1450 1451 1453 1454 1454 1453 1452
1454 1451 1448 1445 1442 1439 1436 1434 1433 1432 1432 1431 1431 1431 1430 1431 1431 1432 1432 1432 1433 1433 1433 1434 1434 1434 1436 1436 1437 1438 1439 1440 1441 1443 1442 1442 1443 1445 1446 1447 1446 1446 1445
1450 1447 1445 1442 1438 1435 1432 1430 1429 1428 1427 1426 1425 1425 1425 1425 1425 1425 1426 1426 1426 1426 1426 1427 1427 1427 1428 1429 1430 1430 1431 1432 1434 1435 1436 1436 1437 1438 1440 1440 1439 1439 1439
1447 1444 1441 1438 1435 1432 1428 1426 1424 1423 1422 1421 1420 1419 1419 1418 1419 1419 1420 1420 1419 1419 1420 1420 1420 1420 1421 1423 1423 1422 1422 1423 1425 1427 1428 1429 1430 1431 1432 1433 1433 1433 1431
1443 1440 1438 1435 1431 1428 1425 1423 1421 1419 1418 1416 1415 1414 1413 1412 1413 1413 1413 1413 1413 1413 1413 1413 1414 1414 1414 1415 1416 1415 1415 1416 1418 1418 1419 1420 1421 1422 1424 1425 1426 1426 1425
1440 1437 1434 1431 1428 1425 1422 1420 1418 1416 1414 1412 1410 1409 1408 1407 1407 1407 1407 1407 1407 1406 1406 1406 1407 1407 1408 1409 1409 1409 1409 1410 1410 1411 1411 1412 1413 1413 1415 1416 1418 1419 1419
1436 1433 1430 1427 1425 1422 1419 1416 1414 1412 1409 1408 1406 1404 1403 1402 1402 1401 1401 1401 1402 1401 1400 1400 1400 1401 1402 1403 1403 1403 1403 1404 1404 1404 1404 1404 1405 1405 1406 1408 1409 1411 1413
1433 1429 1426 1424 1421 1418 1415 1413 1410 1408 1406 1404 1402 1400 1398 1398 1397 1396 1396 1396 1396 1396 1395 1395 1396 1396 1396 1397 1397 1397 1397 1397 1396 1397 1397 1397 1398 1399 1400 1401 1402 1404 1406
1429 1426 1423 1420 1417 1415 1412 1410 1407 1405 1403 1401 1399 1396 1395 1394 1393 1392 1391 1391 1391 1391 1391 1390 1391 1391 1391 1391 1391 1391 1391 1391 1391 1392 1392 1392 1392 1392 1393 1394 1395 1397 1398
1425 1422 1419 1417 1414 1411 1409 1407 1404 1402 1401 1399 1396 1395 1393 1390 1390 1389 1388 1387 1386 1386 1386 1386 1385 1385 1385 1385 1385 1385 1386 1386 1386 1386 1387 1387 1387 1387 1387 1388 1390 1391 1392
1422 1419 1416 1414 1411 1409 1406 1403 1401 1400 1398 1396 1394 1393 1390 1389 1387 1386 1384 1383 1383 1383 1383 1381 1381 1381 1380 1380 1380 1380 1381 1381 1381 1381 1382 1382 1382 1382 1382 1383 1385 1387 1388
1419 1416 1414 1411 1409 1406 1403 1401 1398 1396 1394 1392 1391 1389 1388 1386 1384 1382 1380 1379 1379 1379 1378 1377 1377 1377 1376 1376 1376 1376 1376 1377 1377 1377 1378 1378 1378 1379 1379 1379 1381 1382 1383
1416 1413 1411 1408 1405 1403 1401 1398 1396 1393 1390 1388 1387 1386 1384 1383 1381 1379 1377 1376 1375 1375 1374 1374 1374 1373 1373 1373 1373 1373 1373 1373 1373 1373 1374 1374 1374 1375 1375 1376 1377 1378 1379
1412 1409 1407 1404 1402 1400 1398 1395 1393 1391 1388 1386 1384 1382 1381 1379 1378 1376 1374 1373 1373 1372 1372 1371 1371 1370 1370 1370 1370 1370 1370 1370 1370 1370 1370 1371 1371 1371 1372 1373 1374 1375 1376
1408 1406 1404 1401 1399 1397 1395 1392 1390 1388 1386 1384 1382 1380 1378 1376 1375 1373 1373 1372 1371 1370 1370 1369 1368 1368 1367 1367 1367 1367 1367 1367 1367 1367 1367 1368 1368 1369 1369 1370 1371 1372 1373
1405 1403 1400 1398 1396 1394 1392 1390 1388 1386 1384 1382 1380 1378 1377 1375 1373 1372 1371 1370 1369 1368 1367 1367 1366 1365 1365 1365 1365 1364 1364 1364 1365 1365 1365 1365 1366 1366 1367 1367 1368 1369 1370
1402 1400 1397 1395 1393 1391 1389 1387 1385 1383 1381 1380 1378 1376 1375 1373 1372 1370 1369 1368 1367 1366 1366 1365 1364 1364 1363 1363 1362 1362 1362 1361 1361 1362 1362 1362 1363 1363 1364 1365 1366 1367 1368
1399 1397 1394 1392 1390 1388 1386 1384 1382 1381 1379 1378 1376 1374 1373 1371 1370 1369 1367 1366 1365 1365 1364 1363 1362 1361 1361 1361 1360 1360 1359 1359 1359 1359 1359 1359 1360 1360 1361 1362 1363 1364 1365
1396 1394 1391 1389 1387 1385 1383 1381 1380 1378 1377 1375 1374 1372 1371 1370 1368 1367 1366 1365 1364 1363 1362 1361 1360 1359 1359 1359 1358 1358 1358 1357 1357 1357 1357 1357 1357 1358 1359 1360 1361 1362 1363
1394 1391 1389 1387 1384 1382 1380 1379 1377 1376 1375 1373 1372 1370 1369 1368 1366 1365 1364 1363 1362 1361 1360 1359 1358 1357 1357 1356 1356 1356 1356 1355 1355 1355 1354 1354 1355 1356 1357 1358 1359 1360 1361
1392 1389 1387 1385 1382 1380 1378 1377 1375 1374 1372 1371 1369 1368 1367 1366 1364 1363 1362 1361 1360 1359 1358 1357 1356 1355 1355 1354 1354 1354 1353 1353 1353 1352 1352 1352 1352 1353 1354 1355 1357 1358 1358